STARLINK-4400, 53468

Orbit data source: Space-Track

STARLINK-4400, 53468 is a payload satellite owned by SpaceX/Seattle (US) in SSO that was launched on Fri, 12 Aug 2022 UTC via an FALCON 9 launch vehicle from the Air Force Western Test Range (AFWTR). Payload-class satellites include a variety of spacecraft equipped with specific instruments for various scientific and technological missions. These include communications satellites like Starlink; space stations such as the ISS; scientific satellites like the Hubble; Earth observation satellites from companies like Planet Labs, Umbra, and HawkEye 360; GPS; miniature CubeSats for education and research; and military/defense satellites.

Loading next visibility...
Identifier
53468, 2022-099D
Orbit
SSO
Country
Flag of USUS
Related business
Manufacturer
SpaceX/Seattle
Mission
Operational Commercial Communications
Bus & Motor
STARLINK, Unknown motor
Mass
300 kg wet, ~275 kg dry
Launch date (UTC)
2022-08-12 (3 years ago)
Launch vehicle
FALCON 9
Launch site
Air Force Western Test Range (AFWTR)
Object type
Payload
Rocket body
Debris
Shape & HBR
Box + 1 Pan, 10.1 m
Radar Cross Section
13.562 m², Large (>1 m²)

Expand to show TLE details & history
Last TLE update: 5 hours ago

TLE from 5 hours ago
0 STARLINK-4400
1 53468U 22099D   25293.62092544  .00001295  00000-0  10529-3 0  9998
2 53468  97.6058  53.0816 0000492 204.0537 156.0665 15.01266965174969
Epoch: 2025-10-20T14:54Z
TLE epoch observation values (Epoch: 2025-10-20T14:54:07.958Z)
Latitude
0.00006°
Longitude
160.22782°
Altitude
566.36 km
Speed
7.578 km/s
True Right ascension
03h 32m 19s
True Declination
0° 00' 00"
Sunlit
Object was in full shadow at epoch
Visualization orbit readout
Latitude
Unknown
Longitude
Unknown
Altitude
Unknown
Speed
Unknown
Apparent Right ascension
Unknown
Apparent Declination
Unknown
Sunlit
N/A
Visualization observer readout
Local Sidereal Time
15:05:36
Azimuth
Unknown
Elevation
Unknown
Doppler factor
Unknown
Orbital elements
Apogee altitude
560.329 km
Perigee altitude
559.646 km
Semi-major axis
6,938.125 km
Eccentricity
0.00005
Inclination
97.6058°
RAAN
53.0816°
Arg. of periapsis
204.0537°
True anomaly
156.06879°
Mean anomaly
156.0665°
Eccentric anomaly
156.06764°
Mean motion
3.75561 °/min
Orbital period
95.86 mins
BSTAR
0.00010529
Loading maneuver chart data...
Computing Atmospheric mass density...
Loading historical data...
Loading historical data...
Loading historical data...
Loading historical data...
Loading historical data...
Loading historical data...
Loading historical data...

Documentation

Showing up to 5 results
|